ARG1613 SAZM-SABE

Flight info

Callsign ARG1613
Flight time N/A
Altitude 33000
Route PULPA1G PULPA UW31 TENIL TENIL8R
Aircraft E190/M-SDE3GILORVW/S

Departure

Time 2026-05-03 23:40
Airport Ástor Piazzola International Airport (SAZM)

Arrival

Time N/A
Airport Aeroparque Jorge Newbery (SABE)
Time Latitude Longitude Altitude Speed Heading
2026-05-03 23:13 -37.93330 -57.58073 47 ft 0 kts 303°
2026-05-03 23:14 -37.93333 -57.58069 47 ft 0 kts 303°
2026-05-03 23:14 -37.93324 -57.58080 47 ft 0 kts 303°
2026-05-03 23:28 -37.93332 -57.58065 47 ft 4 kts 299°
2026-05-03 23:29 -37.93341 -57.58030 45 ft 4 kts 221°
2026-05-03 23:29 -37.93330 -57.58024 45 ft 4 kts 184°
2026-05-03 23:29 -37.93304 -57.58024 47 ft 2 kts 175°
2026-05-03 23:29 -37.93302 -57.58024 47 ft 0 kts 175°
2026-05-03 23:34 -37.93311 -57.58023 47 ft 3 kts 176°
2026-05-03 23:34 -37.93343 -57.58023 44 ft 6 kts 171°
2026-05-03 23:34 -37.93377 -57.57979 47 ft 9 kts 120°
2026-05-03 23:34 -37.93412 -57.57901 47 ft 12 kts 118°
2026-05-03 23:35 -37.93456 -57.57802 44 ft 15 kts 120°
2026-05-03 23:35 -37.93511 -57.57678 47 ft 18 kts 119°
2026-05-03 23:35 -37.93576 -57.57531 47 ft 20 kts 119°
2026-05-03 23:35 -37.93647 -57.57372 46 ft 22 kts 119°
2026-05-03 23:36 -37.93726 -57.57190 47 ft 25 kts 118°
2026-05-03 23:36 -37.93814 -57.56994 47 ft 27 kts 119°
2026-05-03 23:36 -37.93909 -57.56781 45 ft 28 kts 119°
2026-05-03 23:36 -37.93991 -57.56595 44 ft 24 kts 119°
2026-05-03 23:37 -37.94024 -57.56436 46 ft 13 kts 71°
2026-05-03 23:37 -37.94011 -57.56400 45 ft 0 kts 60°
2026-05-03 23:38 -37.94010 -57.56400 45 ft 1 kts 60°
2026-05-03 23:38 -37.94000 -57.56378 45 ft 5 kts 60°
2026-05-03 23:38 -37.93966 -57.56323 43 ft 11 kts 43°
2026-05-03 23:38 -37.93929 -57.56318 43 ft 4 kts 311°
2026-05-03 23:39 -37.93926 -57.56324 41 ft 0 kts 303°
2026-05-03 23:39 -37.93858 -57.56459 44 ft 54 kts 302°
2026-05-03 23:40 -37.93507 -57.57147 42 ft 130 kts 303°
2026-05-03 23:40 -37.92930 -57.58286 409 ft 173 kts 307°
2026-05-03 23:40 -37.92193 -57.59668 1184 ft 200 kts 307°
2026-05-03 23:40 -37.91279 -57.61255 1245 ft 253 kts 307°
2026-05-03 23:41 -37.90231 -57.63316 960 ft 298 kts 303°
2026-05-03 23:41 -37.89189 -57.65406 1315 ft 266 kts 308°
2026-05-03 23:41 -37.87932 -57.67066 1560 ft 252 kts 323°
2026-05-03 23:41 -37.86505 -57.68078 1935 ft 216 kts 334°
2026-05-03 23:42 -37.85302 -57.68906 2159 ft 194 kts 327°
2026-05-03 23:42 -37.83850 -57.70103 608 ft 304 kts 329°
2026-05-03 23:42 -37.82043 -57.71303 1380 ft 273 kts 336°
2026-05-03 23:42 -37.80301 -57.71871 1871 ft 258 kts 354°
2026-05-03 23:43 -37.78627 -57.71447 2735 ft 230 kts 10°
2026-05-03 23:43 -37.77145 -57.70825 3511 ft 233 kts
2026-05-03 23:43 -37.75482 -57.70765 3955 ft 247 kts 336°
2026-05-03 23:43 -37.73963 -57.71664 5249 ft 238 kts 327°
2026-05-03 23:44 -37.72490 -57.72685 6316 ft 243 kts 320°
2026-05-03 23:44 -37.71005 -57.73733 7208 ft 258 kts 330°
2026-05-03 23:44 -37.69184 -57.74222 8116 ft 279 kts 350°
2026-05-03 23:44 -37.67198 -57.74045 9099 ft 291 kts
2026-05-03 23:45 -37.65162 -57.73608 9870 ft 305 kts
2026-05-03 23:45 -37.63078 -57.73248 10087 ft 304 kts
2026-05-03 23:45 -37.60992 -57.73014 10047 ft 299 kts 358°
2026-05-03 23:45 -37.58914 -57.72850 9972 ft 295 kts 357°
2026-05-03 23:46 -37.56869 -57.72704 9977 ft 295 kts 357°
2026-05-03 23:46 -37.54825 -57.72547 10003 ft 296 kts 358°
2026-05-03 23:46 -37.52768 -57.72375 10001 ft 297 kts 358°
2026-05-03 23:46 -37.50711 -57.72191 10224 ft 296 kts 358°
2026-05-03 23:47 -37.48636 -57.72023 11159 ft 299 kts 356°
2026-05-03 23:47 -37.46551 -57.71871 12209 ft 301 kts 356°
2026-05-03 23:47 -37.44448 -57.71713 13250 ft 306 kts 356°
2026-05-03 23:47 -37.42301 -57.71534 14266 ft 311 kts 356°
2026-05-03 23:48 -37.40134 -57.71334 15274 ft 316 kts 356°
2026-05-03 23:48 -37.37920 -57.71117 16265 ft 321 kts 356°
2026-05-03 23:48 -37.35652 -57.70898 16896 ft 338 kts 355°
2026-05-03 23:48 -37.33236 -57.70714 17454 ft 354 kts 355°
2026-05-03 23:49 -37.30761 -57.70531 18350 ft 358 kts 355°
2026-05-03 23:49 -37.28293 -57.70337 19190 ft 361 kts 354°
2026-05-03 23:49 -37.25760 -57.70137 20049 ft 364 kts 354°
2026-05-03 23:49 -37.23221 -57.69935 20909 ft 367 kts 354°
2026-05-03 23:50 -37.20650 -57.69733 21729 ft 371 kts 354°
2026-05-03 23:50 -37.18938 -57.69599 22241 ft 373 kts 354°
2026-05-03 23:50 -37.15479 -57.69328 23215 ft 378 kts 354°
2026-05-03 23:50 -37.12841 -57.69124 23871 ft 382 kts 354°
2026-05-03 23:51 -37.10667 -57.68956 24327 ft 385 kts 354°